When you browse on this site, cookies collect data to enhance your experience and personalize the content and advertising you see.
Visit our Privacy Policy to learn more. By continuing to use the site, you agree to this use of cookies and data.
  • In Österreich
  • Länderverzeichnis
  • Für 7 Tage
  • Wassertemperatur
  • Satellitenkarten
  • Wetterkarte
  • News
  • Widgets
  • user-avatar
    Anmelden

    Stündliche Wetter Wolskie

    Heute, 20 Februar, Mittwoch

    Zeit Temperatur Niederschläge Wind Luftdruck Luftfeuchtigkeit
    00:00 +3°C° 0 mm 5 m/S 751 mmHg 86%
    01:00 +3°C° 0 mm 4 m/S 751 mmHg 86%
    02:00 +3°C° 0 mm 4 m/S 751 mmHg 87%
    03:00 +2°C° 0 mm 5 m/S 752 mmHg 88%
    04:00 +2°C° 0 mm 5 m/S 752 mmHg 89%
    05:00 +2°C° 0 mm 5 m/S 752 mmHg 88%
    06:00 +2°C° 0 mm 5 m/S 752 mmHg 87%
    07:00 +2°C° 0 mm 6 m/S 752 mmHg 86%
    08:00 +2°C° 0 mm 6 m/S 753 mmHg 81%
    09:00 +3°C° 0 mm 7 m/S 753 mmHg 75%
    10:00 +3°C° 0 mm 7 m/S 754 mmHg 69%
    11:00 +4°C° 0.1 mm 7 m/S 754 mmHg 68%
    12:00 +4°C° 0.1 mm 7 m/S 754 mmHg 67%
    13:00 +4°C° 0.1 mm 7 m/S 754 mmHg 65%
    14:00 +4°C° 0.1 mm 7 m/S 754 mmHg 65%
    15:00 +4°C° 0.1 mm 7 m/S 755 mmHg 66%
    16:00 +4°C° 0.1 mm 6 m/S 755 mmHg 66%
    17:00 +4°C° 0 mm 6 m/S 755 mmHg 68%
    18:00 +3°C° 0 mm 6 m/S 756 mmHg 70%
    19:00 +3°C° 0 mm 6 m/S 756 mmHg 72%
    20:00 +3°C° 0 mm 5 m/S 756 mmHg 73%
    21:00 +3°C° 0 mm 5 m/S 757 mmHg 75%
    22:00 +3°C° 0 mm 5 m/S 757 mmHg 76%
    23:00 +3°C° 0 mm 4 m/S 757 mmHg 79%

    Morgen, 21 Februar, Donnerstag

    Zeit Temperatur Niederschläge Wind Luftdruck Luftfeuchtigkeit
    00:00 +3°C° 0 mm 4 m/S 758 mmHg 81%
    01:00 +3°C° 0 mm 3 m/S 758 mmHg 84%
    02:00 +2°C° 0 mm 3 m/S 758 mmHg 86%
    03:00 +2°C° 0 mm 3 m/S 758 mmHg 89%
    04:00 +2°C° 0 mm 3 m/S 758 mmHg 91%
    05:00 +3°C° 0.1 mm 2 m/S 758 mmHg 92%
    06:00 +3°C° 0.1 mm 2 m/S 758 mmHg 93%
    07:00 +3°C° 0.1 mm 2 m/S 758 mmHg 94%
    08:00 +4°C° 0.3 mm 2 m/S 758 mmHg 93%
    09:00 +3°C° 0.3 mm 3 m/S 758 mmHg 92%
    10:00 +4°C° 0.3 mm 4 m/S 757 mmHg 90%
    11:00 +4°C° 0.5 mm 4 m/S 757 mmHg 88%
    12:00 +4°C° 0.5 mm 4 m/S 757 mmHg 86%
    13:00 +5°C° 0.5 mm 5 m/S 757 mmHg 84%
    14:00 +3°C° 0.9 mm 5 m/S 756 mmHg 85%
    15:00 +3°C° 0.9 mm 5 m/S 755 mmHg 87%
    16:00 +3°C° 0.9 mm 5 m/S 755 mmHg 88%
    17:00 +3°C° 0.6 mm 5 m/S 755 mmHg 89%
    18:00 +3°C° 0.6 mm 5 m/S 755 mmHg 89%
    19:00 +3°C° 0.6 mm 5 m/S 754 mmHg 89%
    20:00 +3°C° 0.8 mm 5 m/S 754 mmHg 91%
    21:00 +4°C° 0.8 mm 4 m/S 754 mmHg 92%
    22:00 +4°C° 0.8 mm 4 m/S 754 mmHg 93%
    23:00 +4°C° 0.4 mm 4 m/S 754 mmHg 94%

    übermorgen, 22 Februar, Freitag

    Zeit Temperatur Niederschläge Wind Luftdruck Luftfeuchtigkeit
    00:00 +4°C° 0.4 mm 4 m/S 754 mmHg 94%
    01:00 +4°C° 0.4 mm 4 m/S 755 mmHg 95%
    02:00 +1°C° 0.4 mm 5 m/S 755 mmHg 91%
    03:00 -1°C° 0.4 mm 6 m/S 756 mmHg 87%
    04:00 -3°C° 0.4 mm 7 m/S 756 mmHg 84%
    05:00 -3°C° 0 mm 6 m/S 758 mmHg 78%
    06:00 -4°C° 0 mm 6 m/S 759 mmHg 73%
    07:00 -4°C° 0 mm 6 m/S 761 mmHg 68%
    08:00 -4°C° 0 mm 6 m/S 762 mmHg 65%
    09:00 -4°C° 0 mm 6 m/S 763 mmHg 62%
    10:00 -4°C° 0 mm 6 m/S 765 mmHg 58%
    11:00 -4°C° 0 mm 6 m/S 765 mmHg 56%
    12:00 -4°C° 0 mm 6 m/S 766 mmHg 54%
    13:00 -4°C° 0 mm 5 m/S 767 mmHg 52%
    14:00 -4°C° 0 mm 5 m/S 767 mmHg 52%
    15:00 -4°C° 0 mm 5 m/S 768 mmHg 52%
    16:00 -5°C° 0 mm 5 m/S 768 mmHg 52%
    17:00 -5°C° 0 mm 5 m/S 769 mmHg 52%
    18:00 -5°C° 0 mm 4 m/S 769 mmHg 52%
    19:00 -5°C° 0 mm 4 m/S 770 mmHg 52%
    20:00 -5°C° 0 mm 4 m/S 770 mmHg 49%
    21:00 -5°C° 0 mm 4 m/S 771 mmHg 46%
    22:00 -5°C° 0 mm 4 m/S 771 mmHg 43%
    23:00 -5°C° 0 mm 4 m/S 771 mmHg 41%

    23 Februar, Samstag

    Zeit Temperatur Niederschläge Wind Luftdruck Luftfeuchtigkeit
    00:00 -7°C° 0 mm 4 m/S 772 mmHg 40%
    01:00 -7°C° 0 mm 4 m/S 772 mmHg 39%
    02:00 -7°C° 0 mm 4 m/S 772 mmHg 41%
    03:00 -6°C° 0 mm 3 m/S 772 mmHg 43%
    04:00 -6°C° 0 mm 3 m/S 772 mmHg 45%
    05:00 -7°C° 0 mm 3 m/S 772 mmHg 46%
    06:00 -7°C° 0 mm 3 m/S 772 mmHg 48%
    07:00 -7°C° 0 mm 3 m/S 773 mmHg 49%
    08:00 -6°C° 0 mm 3 m/S 773 mmHg 46%
    09:00 -6°C° 0 mm 3 m/S 773 mmHg 43%
    10:00 -5°C° 0 mm 3 m/S 773 mmHg 40%
    11:00 -3°C° 0 mm 2 m/S 773 mmHg 37%
    12:00 -3°C° 0 mm 2 m/S 773 mmHg 34%
    13:00 -2°C° 0 mm 2 m/S 773 mmHg 31%
    14:00 -2°C° 0 mm 2 m/S 772 mmHg 32%
    15:00 -2°C° 0 mm 2 m/S 772 mmHg 32%
    16:00 -2°C° 0 mm 2 m/S 772 mmHg 33%
    17:00 -2°C° 0 mm 2 m/S 772 mmHg 36%
    18:00 -3°C° 0 mm 2 m/S 772 mmHg 39%
    19:00 -1°C° 0 mm 1 m/S 772 mmHg 42%
    20:00 -1°C° 0 mm 1 m/S 772 mmHg 42%
    21:00 -1°C° 0 mm 1 m/S 772 mmHg 42%
    22:00 0°C° 0 mm 1 m/S 772 mmHg 42%
    23:00 0°C° 0 mm 1 m/S 772 mmHg 42%

    24 Februar, Sonntag

    Zeit Temperatur Niederschläge Wind Luftdruck Luftfeuchtigkeit
    00:00 0°C° 0 mm 1 m/S 771 mmHg 42%
    01:00 0°C° 0 mm 1 m/S 771 mmHg 42%
    02:00 -2°C° 0 mm 2 m/S 771 mmHg 42%
    03:00 -2°C° 0 mm 2 m/S 770 mmHg 42%
    04:00 -2°C° 0 mm 2 m/S 770 mmHg 42%
    05:00 -2°C° 0 mm 2 m/S 770 mmHg 42%
    06:00 -2°C° 0 mm 2 m/S 770 mmHg 43%
    07:00 -2°C° 0 mm 2 m/S 770 mmHg 44%
    08:00 -1°C° 0 mm 3 m/S 770 mmHg 42%
    09:00 -1°C° 0 mm 3 m/S 770 mmHg 41%
    10:00 0°C° 0 mm 3 m/S 770 mmHg 39%
    11:00 +1°C° 0 mm 3 m/S 769 mmHg 41%
    12:00 +2°C° 0 mm 3 m/S 769 mmHg 43%
    13:00 +2°C° 0 mm 3 m/S 769 mmHg 45%
    14:00 +2°C° 0 mm 3 m/S 768 mmHg 50%
    15:00 +3°C° 0 mm 2 m/S 768 mmHg 55%
    16:00 +2°C° 0 mm 2 m/S 768 mmHg 61%
    17:00 +2°C° 0 mm 2 m/S 768 mmHg 64%
    18:00 +2°C° 0 mm 2 m/S 768 mmHg 67%
    19:00 +1°C° 0 mm 2 m/S 769 mmHg 70%
    20:00 +1°C° 0 mm 2 m/S 769 mmHg 72%
    21:00 +1°C° 0 mm 2 m/S 769 mmHg 74%
    22:00 +2°C° 0 mm 1 m/S 769 mmHg 75%
    23:00 +1°C° 0 mm 2 m/S 769 mmHg 76%

    25 Februar, Montag

    Zeit Temperatur Niederschläge Wind Luftdruck Luftfeuchtigkeit
    00:00 -1°C° 0 mm 2 m/S 768 mmHg 77%
    01:00 -1°C° 0 mm 2 m/S 768 mmHg 77%
    02:00 -1°C° 0 mm 2 m/S 768 mmHg 77%
    03:00 -1°C° 0 mm 2 m/S 768 mmHg 76%
    04:00 -1°C° 0 mm 2 m/S 767 mmHg 76%
    05:00 -1°C° 0 mm 3 m/S 767 mmHg 77%
    06:00 -1°C° 0 mm 3 m/S 767 mmHg 78%
    07:00 -1°C° 0 mm 3 m/S 767 mmHg 79%
    08:00 0°C° 0 mm 3 m/S 767 mmHg 76%
    09:00 +1°C° 0 mm 3 m/S 767 mmHg 73%
    10:00 +1°C° 0 mm 4 m/S 767 mmHg 70%
    11:00 +4°C° 0 mm 4 m/S 767 mmHg 70%
    12:00 +5°C° 0 mm 4 m/S 766 mmHg 70%
    13:00 +6°C° 0 mm 5 m/S 766 mmHg 70%
    14:00 +6°C° 0 mm 5 m/S 766 mmHg 68%
    15:00 +5°C° 0 mm 4 m/S 766 mmHg 67%
    16:00 +5°C° 0 mm 4 m/S 766 mmHg 65%
    17:00 +4°C° 0 mm 4 m/S 766 mmHg 69%
    18:00 +3°C° 0 mm 4 m/S 767 mmHg 73%
    19:00 +1°C° 0 mm 4 m/S 767 mmHg 77%
    20:00 0°C° 0 mm 4 m/S 767 mmHg 80%
    21:00 0°C° 0 mm 4 m/S 767 mmHg 83%
    22:00 -1°C° 0 mm 4 m/S 767 mmHg 85%
    23:00 -1°C° 0 mm 4 m/S 767 mmHg 85%
    Mehr zeigen